FW9150 Weather Reports


time (UTC)temp
F
wind
direction
speed
knots
gust
knots
rain 1hr
in
rain 24hr
in
rain mn
in
humidity
%
barometer
mb
20260503013421 60 225 0.0 1.7 0.00 0.00 0.00 52 1017.4
20260503011521 61 157 0.0 0.9 0.00 0.00 0.00 51 1017.6
20260503005619 62 217 0.9 1.7 0.00 0.00 0.00 48 1017.6
20260503004622 63 135 0.9 2.6 0.00 0.00 0.00 46 1017.6
20260503003620 63 153 1.7 3.5 0.00 0.00 0.00 44 1017.4
20260503002622 63 202 1.7 4.3 0.00 0.00 0.00 42 1017.6
20260503001720 64 250 1.7 2.6 0.00 0.00 0.00 44 1017.6
20260503000720 64 177 3.5 5.2 0.00 0.00 0.00 43 1017.8
20260502235723 64 226 0.9 2.6 0.00 0.00 0.00 44 1017.6
20260502234722 63 156 1.7 3.5 0.00 0.00 0.00 44 1017.7
20260502233819 63 180 1.7 4.3 0.00 0.00 0.00 43 1018.0
20260502232821 63 216 0.9 1.7 0.00 0.00 0.00 45 1018.0
20260502231822 63 241 1.7 4.3 0.00 0.00 0.00 45 1018.0
20260502230822 64 245 3.5 4.3 0.00 0.00 0.00 44 1018.2
20260502225920 64 208 3.5 6.1 0.00 0.00 0.00 44 1018.2
20260502223921 64 208 3.5 7.0 0.00 0.00 0.00 44 1018.4
20260502221922 65 210 5.2 8.7 0.00 0.00 0.00 42 1018.6
20260502215021 65 161 3.5 6.1 0.00 0.00 0.00 45 1018.9
20260502214020 65 164 3.5 4.3 0.00 0.00 0.00 43 1019.0
20260502213021 65 178 2.6 3.5 0.00 0.00 0.00 42 1019.0
20260502211037 66 204 2.6 4.3 0.00 0.00 0.00 39 1019.2
20260502210022 67 156 5.2 6.1 0.00 0.00 0.00 39 1019.3
20260502205120 67 153 0.9 5.2 0.00 0.00 0.00 40 1019.2
20260502204121 67 161 2.6 4.3 0.00 0.00 0.00 41 1019.3
20260502203219 67 182 7.8 10.4 0.00 0.00 0.00 40 1019.5
20260502202221 67 200 2.6 8.7 0.00 0.00 0.00 42 1019.4
20260502201223 66 161 3.5 6.1 0.00 0.00 0.00 44 1019.3
20260502195220 66 231 0.9 2.6 0.00 0.00 0.00 43 1019.4
20260502194220 66 201 2.6 5.2 0.00 0.00 0.00 43 1019.4
20260502193223 66 172 2.6 4.3 0.00 0.00 0.00 42 1019.6
20260502192222 65 181 3.5 4.3 0.00 0.00 0.00 44 1019.7
20260502191222 64 202 4.3 6.1 0.00 0.00 0.00 44 1019.7
20260502190222 65 225 2.6 4.3 0.00 0.00 0.00 44 1019.7
20260502184221 65 162 3.5 6.1 0.00 0.00 0.00 43 1019.7
20260502183222 66 225 2.6 5.2 0.00 0.00 0.00 42 1020.1
20260502181222 67 202 0.9 2.6 0.00 0.00 0.00 40 1019.7
20260502180220 67 164 1.7 4.3 0.00 0.00 0.00 40 1019.7
20260502170419 65 135 0.0 0.0 0.00 0.00 0.00 40 1019.9
20260502163422 63 164 2.6 3.5 0.00 0.00 0.00 42 1019.9
20260502162420 63 207 0.9 0.9 0.00 0.00 0.00 41 1019.9
20260502161421 62 225 1.7 3.5 0.00 0.00 0.00 43 1019.9
20260502151519 53 157 0.0 0.9 0.00 0.00 0.00 69 1019.7
20260502150521 52 157 0.0 0.0 0.00 0.00 0.00 70 1019.7
20260502130722 50 157 0.0 0.0 0.00 0.00 0.00 66 1018.9
20260502122821 50 157 0.0 0.0 0.00 0.00 0.00 66 1018.9
20260502121820 50 157 0.0 0.0 0.00 0.00 0.00 67 1018.9
20260502120821 50 157 0.0 0.0 0.00 0.00 0.00 68 1019.1
20260502115821 50 157 0.0 0.0 0.00 0.00 0.00 69 1019.0
20260502114820 50 157 0.0 0.0 0.00 0.00 0.00 70 1019.2
20260502113919 50 157 0.0 0.0 0.00 0.00 0.00 71 1019.2
20260502112920 50 157 0.0 0.0 0.00 0.00 0.00 72 1019.2
20260502111922 50 157 0.0 0.0 0.00 0.00 0.00 73 1019.3
20260502111020 50 157 0.0 0.0 0.00 0.00 0.00 73 1019.3
20260502110119 50 157 0.0 0.0 0.00 0.00 0.00 74 1019.4
20260502105120 50 157 0.0 0.0 0.00 0.00 0.00 74 1019.4
20260502104122 50 157 0.0 0.0 0.00 0.00 0.00 75 1019.3
20260502103219 50 157 0.0 0.0 0.00 0.00 0.00 76 1019.4
20260502101223 50 157 0.0 0.0 0.00 0.00 0.00 77 1019.3
20260502100220 50 157 0.0 0.0 0.00 0.00 0.00 78 1019.3
20260502091420 50 157 0.0 0.0 0.00 0.00 0.00 78 1019.7
20260502070820 50 157 0.0 0.0 0.00 0.00 0.00 79 1020.0
20260502065829 50 157 0.0 0.0 0.00 0.00 0.00 78 1020.3
20260502064829 50 157 0.0 0.0 0.00 0.00 0.00 78 1020.3
20260502063928 50 157 0.0 0.0 0.00 0.00 0.00 78 1020.3
20260502062929 50 157 0.0 0.0 0.00 0.00 0.00 79 1020.3
20260502060930 50 157 0.0 0.0 0.00 0.00 0.00 77 1020.5
20260502055929 50 157 0.0 0.0 0.00 0.00 0.00 77 1020.5
20260502054931 50 157 0.0 0.0 0.00 0.00 0.00 77 1020.5
20260502051931 51 157 0.0 0.0 0.00 0.00 0.00 76 1020.6
20260502050028 51 157 0.0 0.0 0.00 0.00 0.00 75 1020.6
20260502045029 51 157 0.0 0.0 0.00 0.00 0.00 75 1020.6
20260502043029 52 157 0.0 0.0 0.00 0.00 0.00 73 1020.6
20260502042029 52 157 0.0 0.0 0.00 0.00 0.00 74 1020.5
20260502041128 52 157 0.0 0.0 0.00 0.00 0.00 74 1020.5
20260502040129 53 157 0.0 0.0 0.00 0.00 0.00 73 1020.3
20260502033230 55 157 0.0 0.0 0.00 0.00 0.00 72 1020.0
20260502032229 55 157 0.0 0.0 0.00 0.00 0.00 70 1020.0
20260502031229 56 157 0.0 0.0 0.00 0.00 0.00 68 1020.1
20260502030229 56 157 0.0 0.0 0.00 0.00 0.00 67 1020.0
20260502025231 57 157 0.0 0.0 0.00 0.00 0.00 66 1019.9
20260502024228 58 157 0.0 0.0 0.00 0.00 0.00 65 1019.9
20260502023229 58 157 0.0 0.0 0.00 0.00 0.00 61 1020.0
20260502022229 59 157 0.0 0.0 0.00 0.00 0.00 59 1019.8
20260502021229 59 157 0.0 0.0 0.00 0.00 0.00 57 1019.9
20260502015228 60 157 0.0 0.0 0.00 0.00 0.00 55 1020.0
20260502014229 61 157 0.0 0.0 0.00 0.00 0.00 55 1020.0